FW7166 Weather Reports


Display with metric or nautical units.
time (UTC)temp
F
wind
direction
speed
MPH
gust
MPH
rain 1hr
in
rain 24hr
in
rain mn
in
humidity
%
barometer
mb
20260906150327 62 237 0.0 11.0 0.00 0.00 0.00 64 1021.6
20260906145826 63 313 1.0 11.0 0.00 0.00 0.00 64 1021.5
20260906145325 63 241 2.0 11.0 0.00 0.00 0.00 63 1021.6
20260906144824 64 229 1.0 11.0 0.00 0.00 0.00 62 1021.6
20260906144325 64 233 2.0 11.0 0.00 0.00 0.00 62 1021.5
20260906143308 63 240 1.0 11.0 0.00 0.00 0.00 65 1021.4
20260906142807 62 228 1.0 11.0 0.00 0.00 0.00 66 1021.2
20260906142307 62 235 1.0 11.0 0.00 0.00 0.00 68 1021.2
20260906141807 62 196 1.0 11.0 0.00 0.00 0.00 67 1021.5
20260906141306 63 230 1.0 11.0 0.00 0.00 0.00 66 1021.1
20260906140805 63 218 2.0 11.0 0.00 0.00 0.00 66 1021.2
20260906140305 63 221 2.0 11.0 0.00 0.00 0.00 65 1021.3
20260906135804 63 222 3.0 11.0 0.00 0.00 0.00 64 1021.2
20260906135306 63 246 1.0 11.0 0.00 0.00 0.00 64 1021.0
20260906134802 64 240 0.0 11.0 0.00 0.00 0.00 64 1021.5
20260906134301 64 211 1.0 11.0 0.00 0.00 0.00 64 1021.0
20260906133800 65 240 3.0 11.0 0.00 0.00 0.00 62 1021.1
20260906132229 65 191 3.0 11.0 0.00 0.00 0.00 62 1021.1
20260906131728 65 224 1.0 11.0 0.00 0.00 0.00 64 1020.9
20260906130711 65 206 1.0 11.0 0.00 0.00 0.00 65 1020.9
20260906130211 64 214 2.0 11.0 0.00 0.00 0.00 66 1021.2
20260906125712 64 229 0.0 11.0 0.00 0.00 0.00 68 1020.8
20260906124654 64 231 2.0 11.0 0.00 0.00 0.00 66 1020.9
20260906124155 65 212 1.0 11.0 0.00 0.00 0.00 65 1020.7
20260906123654 64 189 0.0 11.0 0.00 0.00 0.00 66 1020.7
20260906123154 64 238 0.0 11.0 0.00 0.00 0.00 66 1020.7
20260906122654 64 214 0.0 11.0 0.00 0.00 0.00 66 1020.7
20260906122152 63 241 0.0 11.0 0.00 0.00 0.00 67 1020.7
20260906121136 64 238 0.0 11.0 0.00 0.00 0.00 66 1020.9
20260906120634 64 234 0.0 11.0 0.00 0.00 0.00 65 1020.7
20260906120134 64 204 0.0 11.0 0.00 0.00 0.00 66 1020.7
20260906115632 64 239 2.0 11.0 0.00 0.00 0.00 65 1020.9
20260906115132 64 238 0.0 11.0 0.00 0.00 0.00 67 1020.4
20260906114631 64 227 0.0 11.0 0.00 0.00 0.00 66 1020.5
20260906114130 64 235 0.0 11.0 0.00 0.00 0.00 68 1020.3
20260906113629 64 265 0.0 11.0 0.00 0.00 0.00 67 1020.5
20260906113129 64 213 0.0 11.0 0.00 0.00 0.00 68 1020.4
20260906112629 64 213 0.0 11.0 0.00 0.00 0.00 67 1020.1
20260906112129 64 181 0.0 11.0 0.00 0.00 0.00 69 1020.7
20260906111628 64 206 0.0 11.0 0.00 0.00 0.00 70 1020.3
20260906111127 64 232 1.0 11.0 0.00 0.00 0.00 69 1019.9
20260906110628 64 224 1.0 11.0 0.00 0.00 0.00 70 1020.0
20260906110127 64 232 1.0 11.0 0.00 0.00 0.00 70 1020.5
20260906105626 63 240 1.0 11.0 0.00 0.00 0.00 72 1020.1
20260906105126 63 230 1.0 11.0 0.00 0.00 0.00 73 1020.0
20260906104110 63 201 0.0 11.0 0.00 0.00 0.00 73 1020.1
20260906103611 63 241 0.0 11.0 0.00 0.00 0.00 75 1020.1
20260906103110 62 311 0.0 11.0 0.00 0.00 0.00 74 1019.9
20260906102610 62 335 1.0 11.0 0.00 0.00 0.00 76 1019.9
20260906102109 62 223 0.0 11.0 0.00 0.00 0.00 78 1019.9
20260906101609 62 235 0.0 11.0 0.00 0.00 0.00 77 1020.2
20260906101109 62 244 0.0 11.0 0.00 0.00 0.00 77 1019.6
20260906100608 63 245 0.0 11.0 0.00 0.00 0.00 77 1019.7
20260906095553 63 243 0.0 11.0 0.00 0.00 0.00 76 1019.5
20260906095051 63 198 1.0 11.0 0.00 0.00 0.00 77 1019.4
20260906094552 62 212 0.0 11.0 0.00 0.00 0.00 80 1019.5
20260906094051 61 239 0.0 11.0 0.00 0.00 0.00 80 1019.2
20260906093035 61 228 0.0 11.0 0.00 0.00 0.00 82 1019.5
20260906092533 62 234 1.0 11.0 0.00 0.00 0.00 80 1019.5
20260906092032 61 216 0.0 11.0 0.00 0.00 0.00 83 1019.4
20260906091532 62 224 0.0 11.0 0.00 0.00 0.00 83 1019.8
20260906091031 61 235 0.0 11.0 0.00 0.00 0.00 84 1019.3
20260906090531 61 219 0.0 11.0 0.00 0.00 0.00 85 1019.4
20260906090030 61 225 1.0 11.0 0.00 0.00 0.00 84 1019.3
20260906085530 61 231 1.0 11.0 0.00 0.00 0.00 85 1019.3
20260906085030 60 252 1.0 11.0 0.00 0.00 0.00 86 1019.4
20260906084529 60 223 1.0 11.0 0.00 0.00 0.00 87 1019.1
20260906084028 59 267 0.0 11.0 0.00 0.00 0.00 87 1019.3
20260906083527 59 252 0.0 11.0 0.00 0.00 0.00 89 1019.3
20260906083027 59 256 0.0 11.0 0.00 0.00 0.00 91 1019.0
20260906082010 59 223 1.0 11.0 0.00 0.00 0.00 91 1018.9
20260906081510 58 225 1.0 11.0 0.00 0.00 0.00 93 1018.9
20260906081010 58 232 0.0 11.0 0.00 0.00 0.00 94 1018.7
20260906080509 58 270 0.0 11.0 0.00 0.00 0.00 94 1018.7
20260906080008 58 229 0.0 11.0 0.00 0.00 0.00 95 1018.7
20260906074952 57 240 0.0 11.0 0.00 0.00 0.00 96 1018.9
20260906073936 57 228 1.0 11.0 0.00 0.00 0.00 97 1018.4
20260906072919 56 221 0.0 11.0 0.00 0.00 0.00 97 1018.3
20260906072418 56 230 0.0 11.0 0.00 0.00 0.00 98 1018.3
20260906071401 56 248 0.0 11.0 0.00 0.00 0.00 98 1018.2
20260906070900 55 225 0.0 11.0 0.00 0.00 0.00 98 1018.2
20260906070400 55 202 0.0 11.0 0.00 0.00 0.00 99 1018.2
20260906065859 55 211 0.0 11.0 0.00 0.00 0.00 99 1018.1
20260906065358 55 235 0.0 11.0 0.00 0.00 0.00 99 1018.0
20260906064857 54 244 0.0 11.0 0.00 0.00 0.00 99 1018.2
20260906064356 54 235 0.0 11.0 0.00 0.00 0.00 99 1018.2
20260906063856 54 235 0.0 11.0 0.00 0.00 0.00 99 1017.9
20260906063356 53 235 0.0 11.0 0.00 0.00 0.00 99 1017.7
20260906062856 53 249 0.0 11.0 0.00 0.00 0.00 100 1017.9
20260906062356 53 256 0.0 11.0 0.00 0.00 0.00 99 1017.8
20260906060308 51 256 0.0 11.0 0.00 0.00 0.00 99 1017.4
20260906055808 51 256 0.0 11.0 0.00 0.00 0.00 99 1017.8
20260906055307 50 256 0.0 11.0 0.00 0.00 0.00 99 1017.5
20260906054806 50 250 0.0 11.0 0.00 0.00 0.00 99 1017.6
20260906054306 50 247 0.0 11.0 0.00 0.00 0.00 99 1017.6
20260906053805 50 247 0.0 11.0 0.00 0.00 0.00 99 1017.4
20260906053305 50 247 0.0 11.0 0.00 0.00 0.00 99 1017.5
20260906052805 50 247 0.0 11.0 0.00 0.00 0.00 99 1017.3
20260906052305 49 247 0.0 11.0 0.00 0.00 0.00 99 1017.5
20260906051803 49 247 0.0 11.0 0.00 0.00 0.00 99 1017.2
20260906050746 49 248 0.0 11.0 0.00 0.00 0.00 99 1017.3
20260906050246 49 248 0.0 11.0 0.00 0.00 0.00 99 1017.1
20260906045746 48 248 0.0 11.0 0.00 0.00 0.00 99 1017.1
20260906045245 48 248 0.0 11.0 0.00 0.00 0.00 99 1017.0
20260906044744 48 248 0.0 11.0 0.00 0.00 0.00 99 1017.1
20260906044243 48 248 0.0 11.0 0.00 0.00 0.00 99 1017.1
20260906043743 48 248 0.0 11.0 0.00 0.00 0.00 99 1016.9
20260906043243 48 248 0.0 11.0 0.00 0.00 0.00 98 1016.7
20260906042743 47 248 0.0 11.0 0.00 0.00 0.00 98 1016.6
20260906042243 47 248 0.0 11.0 0.00 0.00 0.00 98 1016.4
20260906041743 47 248 0.0 11.0 0.00 0.00 0.00 98 1016.6
20260906041242 47 248 0.0 11.0 0.00 0.00 0.00 98 1016.4
20260906040227 47 248 0.0 11.0 0.00 0.00 0.00 98 1016.4
20260906035727 47 248 0.0 11.0 0.00 0.00 0.00 98 1016.3
20260906035226 47 248 0.0 11.0 0.00 0.00 0.00 98 1016.1
20260906034725 47 248 0.0 11.0 0.00 0.00 0.00 98 1016.3
20260906034224 47 248 0.0 11.0 0.00 0.00 0.00 97 1016.2
20260906033209 47 248 0.0 11.0 0.00 0.00 0.00 97 1016.2
20260906032709 47 248 0.0 11.0 0.00 0.00 0.00 97 1016.1
20260906032209 47 248 0.0 11.0 0.00 0.00 0.00 97 1015.8
20260906031708 47 248 0.0 11.0 0.00 0.00 0.00 97 1015.8
20260906031208 47 248 0.0 11.0 0.00 0.00 0.00 97 1015.9
20260906030707 47 248 0.0 11.0 0.00 0.00 0.00 97 1015.9
20260906030207 48 248 0.0 11.0 0.00 0.00 0.00 97 1015.7
20260906025706 48 248 0.0 11.0 0.00 0.00 0.00 97 1015.8
20260906025205 48 248 0.0 11.0 0.00 0.00 0.00 97 1015.6
20260906024704 48 248 0.0 11.0 0.00 0.00 0.00 97 1015.7
20260906024204 48 248 0.0 11.0 0.00 0.00 0.00 97 1015.5
20260906023148 49 248 0.0 11.0 0.00 0.00 0.00 97 1015.4
20260906022648 49 248 0.0 11.0 0.00 0.00 0.00 97 1015.6
20260906022147 49 248 0.0 11.0 0.00 0.00 0.00 97 1015.6
20260906021646 49 248 0.0 11.0 0.00 0.00 0.00 97 1015.5
20260906021146 49 248 0.0 11.0 0.00 0.00 0.00 97 1015.4
20260906020645 50 248 0.0 11.0 0.00 0.00 0.00 97 1015.4
20260906020144 50 248 0.0 11.0 0.00 0.00 0.00 97 1015.3
20260906015128 51 248 0.0 11.0 0.00 0.00 0.00 98 1015.3
20260906014113 51 248 0.0 11.0 0.00 0.00 0.00 98 1015.2
20260906013613 51 248 0.0 11.0 0.00 0.00 0.00 98 1015.1
20260906012557 51 248 0.0 11.0 0.00 0.00 0.00 98 1014.8
20260906012057 51 248 0.0 11.0 0.00 0.00 0.00 98 1014.9
20260906011556 51 248 0.0 11.0 0.00 0.00 0.00 98 1014.6
20260906011056 51 248 0.0 11.0 0.00 0.00 0.00 98 1014.7
20260906010040 52 248 0.0 11.0 0.00 0.00 0.00 98 1014.7
20260906005539 52 248 0.0 11.0 0.00 0.00 0.00 98 1014.4
20260906005039 52 248 0.0 11.0 0.00 0.00 0.00 98 1014.4
20260906004538 52 248 0.0 11.0 0.00 0.00 0.00 98 1014.3
20260906004037 52 248 0.0 11.0 0.00 0.00 0.00 98 1014.3
20260906003537 52 248 0.0 11.0 0.00 0.00 0.00 98 1014.3
20260906003037 52 247 0.0 11.0 0.00 0.00 0.00 98 1014.3
20260906002536 52 239 0.0 11.0 0.00 0.00 0.00 98 1014.2
20260906002036 52 234 0.0 11.0 0.00 0.00 0.00 98 1014.1
20260906001019 52 232 0.0 11.0 0.00 0.00 0.00 98 1014.1
20260906000519 52 232 0.0 11.0 0.00 0.00 0.00 98 1014.1
20260906000018 51 232 0.0 11.0 0.00 0.00 0.00 98 1014.1
20260905235003 51 293 0.0 11.0 0.00 0.00 0.00 98 1013.8
20260905234501 51 317 0.0 11.0 0.00 0.00 0.00 98 1014.0
20260905234001 51 319 0.0 11.0 0.00 0.00 0.00 98 1013.8
20260905233500 51 324 0.0 11.0 0.00 0.00 0.00 98 1013.6
20260905233000 51 263 0.0 11.0 0.00 0.00 0.00 98 1013.4
20260905232459 51 243 0.0 11.0 0.00 0.00 0.00 98 1013.4
20260905231958 50 233 0.0 11.0 0.00 0.00 0.00 98 1013.2
20260905230943 50 233 0.0 11.0 0.00 0.00 0.00 97 1013.0
20260905230443 50 233 0.0 11.0 0.00 0.00 0.00 97 1013.2
20260905225428 50 234 0.0 11.0 0.00 0.00 0.00 97 1013.0
20260905224928 51 229 0.0 11.0 0.00 0.00 0.00 97 1012.7
20260905224426 51 224 0.0 11.0 0.00 0.00 0.00 97 1012.6
20260905223925 51 264 0.0 11.0 0.00 0.00 0.00 97 1012.9
20260905223424 51 288 0.0 11.0 0.00 0.00 0.00 97 1012.4
20260905222407 51 289 0.0 11.0 0.00 0.00 0.00 98 1012.4
20260905221906 51 287 0.0 11.0 0.00 0.00 0.00 98 1012.2
20260905221405 51 250 0.0 11.0 0.00 0.00 0.00 98 1012.1
20260905220905 50 253 0.0 11.0 0.00 0.00 0.00 98 1012.2
20260905220405 50 253 0.0 11.0 0.00 0.00 0.00 97 1011.9
20260905215905 50 241 0.0 11.0 0.00 0.00 1.17 97 1011.8
20260905215405 50 221 0.0 11.0 0.00 0.00 1.17 97 1011.9
20260905214905 50 226 0.0 11.0 0.00 0.00 1.17 97 1011.8
20260905214404 50 219 0.0 11.0 0.00 0.00 1.17 97 1011.5
20260905213904 50 239 0.0 11.0 0.00 0.00 1.17 97 1011.5
20260905213404 50 253 0.0 11.0 0.00 0.00 1.17 97 1011.5
20260905212904 50 253 0.0 11.0 0.00 0.00 1.17 97 1011.6
20260905212404 50 253 0.0 11.0 0.00 0.00 1.17 97 1011.4
20260905211904 50 253 0.0 11.0 0.00 0.00 1.17 97 1011.2
20260905211404 50 255 0.0 11.0 0.00 0.00 1.17 97 1011.2
20260905210903 50 256 0.0 11.0 0.00 0.00 1.17 97 1011.2
20260905210402 50 256 0.0 11.0 0.00 0.00 1.17 97 1010.9
20260905205902 50 256 0.0 11.0 0.00 0.00 1.17 97 1010.7
20260905205402 50 256 0.0 11.0 0.00 0.00 1.17 97 1010.5
20260905204901 50 256 0.0 11.0 0.00 0.00 1.17 97 1010.5
20260905204401 50 280 0.0 11.0 0.00 0.00 1.17 97 1010.7
20260905203900 50 236 0.0 11.0 0.00 0.00 1.17 97 1010.4
20260905203400 50 238 0.0 11.0 0.00 0.00 1.17 96 1010.4
20260905202900 50 227 0.0 11.0 0.00 0.00 1.17 96 1010.1
20260905202359 50 226 0.0 11.0 0.00 0.00 1.17 96 1009.9
20260905201858 50 226 0.0 11.0 0.00 0.00 1.17 96 1009.9
20260905201357 50 227 0.0 11.0 0.00 0.00 1.17 96 1009.9
20260905200857 50 222 0.0 11.0 0.00 0.00 1.17 96 1009.7
20260905200357 51 222 0.0 11.0 0.00 0.00 1.17 96 1009.8
20260905195857 51 226 0.0 11.0 0.00 0.00 1.17 96 1009.6
20260905195356 51 237 0.0 11.0 0.01 0.00 1.17 96 1009.4
20260905194855 51 237 0.0 11.0 0.01 0.00 1.17 96 1009.8
20260905193839 51 237 0.0 11.0 0.03 0.00 1.17 96 1009.2
20260905193339 51 237 0.0 11.0 0.05 0.00 1.17 96 1008.9
20260905192839 52 237 0.0 11.0 0.07 0.00 1.17 96 1009.1
20260905191822 52 237 0.0 11.0 0.17 0.00 1.17 96 1008.7
20260905191322 52 237 0.0 11.0 0.19 0.00 1.17 96 1008.9
20260905190822 52 237 0.0 11.0 0.26 0.00 1.17 95 1008.6
20260905190321 52 237 0.0 11.0 0.28 0.00 1.17 95 1009.0
20260905185821 52 237 0.0 11.0 0.28 0.00 1.17 95 1008.7
20260905185320 53 230 0.0 11.0 0.27 0.00 1.17 95 1009.0
20260905184819 53 234 0.0 11.0 0.27 0.00 1.16 96 1008.9
20260905183803 53 234 0.0 11.0 0.25 0.00 1.14 96 1009.0
20260905183302 53 247 0.0 11.0 0.23 0.00 1.12 95 1008.9
20260905182801 53 243 0.0 11.0 0.22 0.00 1.11 95 1008.6
20260905182301 53 234 1.0 11.0 0.19 0.00 1.08 94 1008.7
20260905181801 53 258 0.0 11.0 0.12 0.00 1.01 94 1008.6
20260905181301 54 268 0.0 11.0 0.11 0.00 1.00 94 1008.3
20260905180800 54 285 0.0 11.0 0.06 0.00 0.96 94 1008.3
20260905180259 54 257 0.0 11.0 0.00 0.00 0.89 95 1008.4
20260905175758 54 266 0.0 11.0 0.00 0.00 0.89 95 1008.3
20260905175257 54 228 0.0 11.0 0.00 0.00 0.89 95 1008.1
20260905174757 54 219 0.0 11.0 0.00 0.00 0.89 95 1007.8
20260905174257 54 210 0.0 11.0 0.02 0.00 0.89 95 1007.8
20260905173756 54 210 0.0 11.0 0.02 0.00 0.89 95 1007.7
20260905173256 54 210 0.0 11.0 0.02 0.00 0.89 95 1007.8
20260905172755 55 210 0.0 11.0 0.02 0.00 0.89 95 1007.7
20260905172254 55 255 0.0 11.0 0.02 0.00 0.89 95 1007.9
20260905171753 55 232 0.0 11.0 0.02 0.00 0.89 94 1007.8
20260905171252 55 214 0.0 11.0 0.02 0.00 0.89 94 1007.7
20260905170752 55 217 1.0 11.0 0.02 0.00 0.89 94 1007.6
20260905170252 55 230 0.0 11.0 0.02 0.00 0.89 94 1007.7
20260905165751 55 238 0.0 11.0 0.02 0.00 0.89 94 1007.7
20260905164734 55 213 1.0 11.0 0.02 0.00 0.89 94 1007.9
20260905164233 55 244 2.0 11.0 0.02 0.00 0.87 93 1007.2
20260905163733 56 218 0.0 11.0 0.01 0.00 0.86 94 1007.4
20260905163232 56 233 0.0 11.0 0.01 0.00 0.86 94 1007.1
20260905162216 56 243 0.0 11.0 0.01 0.00 0.86 94 1006.9
20260905161200 56 229 0.0 11.0 0.01 0.00 0.86 94 1006.9
20260905160659 56 241 0.0 11.0 0.01 0.00 0.86 93 1006.8
20260905160158 56 225 0.0 11.0 0.01 0.00 0.86 94 1006.9
20260905155658 56 220 1.0 11.0 0.02 0.00 0.86 94 1006.8
20260905155157 56 238 0.0 11.0 0.06 0.00 0.86 94 1006.9
20260905154657 56 251 0.0 11.0 0.06 0.00 0.86 94 1006.9
20260905154156 56 172 0.0 11.0 0.04 0.00 0.84 94 1006.6
20260905153655 56 219 1.0 11.0 0.04 0.00 0.84 93 1006.7
20260905153155 56 234 0.0 11.0 0.04 0.00 0.84 94 1006.6
20260905152655 56 211 0.0 11.0 0.04 0.00 0.84 93 1006.6
20260905151638 56 216 0.0 11.0 0.04 0.00 0.84 93 1006.8
20260905151137 56 213 0.0 11.0 0.04 0.00 0.84 93 1006.9
20260905150638 56 167 0.0 11.0 0.04 0.00 0.84 92 1006.9